Location: Vancouver
(49.2500°N, 123.1330°W)
Time: 12:46:38
(UTC-07:00)

Vanguard 2 Rocket - Visible Passes

Search period start: 03 June 2015 00:00
Search period end: 13 June 2015 00:00
Orbit: 556 x 3330 km, 32.9° (Epoch: 02 June)

Date Brightness Start Highest point End Pass type
(mag) Time Alt. Az. Time Alt. Az. Time Alt. Az.
09 Jun 10.4 04:14:24 10° SSE 04:16:19 10° SSE 04:18:52 10° SE visible
11 Jun 10.2 04:22:54 10° S 04:31:46 18° SSE 04:39:07 10° ESE visible
12 Jun 10.4 03:24:53 10° S 03:32:02 14° SSE 03:38:50 10° ESE visible
